Location: Corcelles
(46.1547°N, 4.7234°E)
Time: 21:05:29
(UTC+00:00)

Cosmos 1900 - Visible Passes

Search period start: 20 October 2020 00:00
Search period end: 30 October 2020 00:00
Orbit: 679 x 743 km, 66.1° (Epoch: 20 October)

Date Brightness Start Highest point End Pass type
(mag) Time Alt. Az. Time Alt. Az. Time Alt. Az.
20 Oct 7.0 02:15:18 15° NNE 02:15:18 15° NNE 02:16:09 10° NNE visible
20 Oct 6.4 03:54:21 16° NNW 03:54:21 16° NNW 03:57:00 10° N visible
21 Oct 6.6 03:01:07 17° N 03:01:07 17° N 03:02:39 10° NNE visible
22 Oct 7.3 02:07:51 11° NNE 02:07:51 11° NNE 02:08:06 10° NNE visible
22 Oct 6.7 03:46:55 13° NNW 03:46:55 13° NNW 03:48:38 10° N visible
23 Oct 6.9 02:53:38 13° N 02:53:38 13° N 02:54:27 10° NNE visible
24 Oct 6.9 03:39:23 10° NNW 03:39:23 10° NNW 03:39:53 10° N visible
25 Oct 7.2 02:46:05 10° N 02:46:05 10° N 02:46:11 10° N visible
28 Oct 7.0 05:07:47 10° N 05:08:32 10° NNE 05:09:16 10° NNE visible
